DW6386 Weather Reports


time (UTC)temp
C
wind
direction
speed
KPH
gust
KPH
rain 1hr
cm
rain 24hr
cm
rain mn
cm
humidity
%
barometer
mb
20260906103100 20 93 0.0 1.6 0.00 1.45 0.23 98 1010.3
20260906101543 20 93 0.0 0.0 0.00 1.45 0.23 98 1010.1
20260906100042 20 93 0.0 0.0 0.00 1.45 0.23 98 1010.2
20260906094539 21 93 0.0 0.0 0.00 1.45 0.23 97 1010.2
20260906093040 21 84 0.0 1.6 0.00 1.45 0.23 97 1010.0
20260906091538 21 84 0.0 0.0 0.00 1.45 0.23 97 1009.9
20260906090054 21 84 0.0 1.6 0.00 1.45 0.23 97 1010.0
20260906084535 21 84 0.0 0.0 0.00 1.45 0.23 97 1010.1
20260906083038 21 82 0.0 3.2 0.00 1.45 0.23 96 1010.2
20260906081532 21 89 0.0 1.6 0.00 1.45 0.23 96 1010.2
20260906080031 21 82 0.0 4.8 0.00 1.45 0.23 95 1010.4
20260906074530 21 69 3.2 11.3 0.00 1.45 0.23 95 1010.5
20260906073030 21 73 1.6 9.7 0.03 1.45 0.23 96 1010.9
20260906071526 22 113 0.0 9.7 0.23 1.45 0.23 98 1011.0
20260906070034 22 78 3.2 9.7 0.23 1.45 0.23 99 1010.9
20260906064522 22 68 0.0 1.6 0.23 1.45 0.23 99 1010.6
20260906063036 22 173 0.0 0.0 0.18 1.42 0.18 99 1010.4
20260906061519 22 113 0.0 0.0 0.00 1.24 0.00 99 1010.8
20260906060019 22 107 0.0 0.0 0.00 1.24 0.00 99 1010.7
20260906054517 22 107 0.0 0.0 0.00 1.24 0.00 98 1010.5
20260906053016 22 107 0.0 0.0 0.00 1.24 0.00 98 1010.5
20260906051523 22 107 0.0 0.0 0.00 1.24 0.00 98 1010.7
20260906050013 22 106 0.0 0.0 0.00 1.24 0.00 98 1010.7
20260906044512 22 106 0.0 0.0 0.00 1.24 0.00 98 1010.9
20260906043009 22 106 0.0 1.6 0.00 1.24 0.00 98 1011.1
20260906041508 22 106 0.0 0.0 0.00 1.24 0.00 98 1011.1
20260906040019 22 105 0.0 0.0 0.00 1.24 1.24 98 1011.2
20260906034505 22 170 0.0 0.0 0.00 1.24 1.24 98 1011.1
20260906033005 22 170 0.0 0.0 0.00 1.24 1.24 98 1011.0
20260906031507 22 170 0.0 0.0 0.00 1.24 1.24 98 1011.0
20260906030005 22 170 0.0 0.0 0.00 1.24 1.24 98 1011.1
20260906024503 22 170 0.0 0.0 0.00 1.24 1.24 97 1010.7
20260906023004 22 170 0.0 0.0 0.00 1.24 1.24 97 1010.7
20260906021503 23 170 0.0 0.0 0.00 1.24 1.24 97 1010.4
20260906020003 23 170 0.0 0.0 0.00 1.24 1.24 97 1010.5
20260906014502 23 170 0.0 0.0 0.00 1.24 1.24 96 1010.3
20260906013001 23 184 0.0 0.0 0.00 1.24 1.24 96 1010.2
20260906011501 23 184 0.0 0.0 0.00 1.24 1.24 96 1010.1
20260906010001 23 184 0.0 0.0 0.00 1.24 1.24 95 1010.2
20260906004603 23 184 0.0 0.0 0.00 1.24 1.24 94 1010.2
20260906003059 24 184 0.0 0.0 0.00 1.24 1.24 93 1010.2
20260906001559 25 186 0.0 0.0 0.00 1.24 1.24 93 1010.2
20260906000108 25 186 0.0 0.0 0.00 1.24 1.24 91 1010.3
20260905234619 26 200 0.0 0.0 0.00 1.24 1.24 90 1010.2
20260905233058 26 200 0.0 0.0 0.00 1.24 1.24 89 1010.2
20260905231604 26 200 0.0 0.0 0.00 1.24 1.24 89 1010.0
20260905224556 26 179 0.0 0.0 0.00 1.24 1.24 88 1009.9
20260905223057 25 179 0.0 0.0 0.00 1.24 1.24 88 1009.8
20260905221556 26 155 0.0 0.0 0.00 1.24 1.24 89 1009.9
20260905214553 25 145 0.0 0.0 0.00 1.24 1.24 89 1010.1
20260905213051 25 144 0.0 1.6 0.00 1.24 1.24 90 1010.1
20260905211549 25 295 0.0 3.2 0.00 1.24 1.24 93 1010.4
20260905210057 24 176 0.0 0.0 0.00 1.24 1.24 94 1010.7
20260905204552 24 281 0.0 6.4 0.00 1.24 1.24 94 1010.7
20260905203101 24 130 0.0 0.0 0.00 1.24 1.24 95 1010.6
20260905201543 24 130 0.0 1.6 0.00 1.24 1.24 95 1010.8
20260905200043 24 146 0.0 0.0 0.00 1.24 1.24 95 1010.9
20260905194538 23 146 0.0 1.6 0.00 1.24 1.24 95 1011.3
20260905191510 23 143 0.0 3.2 0.00 1.24 1.24 95 1011.0
20260905190009 23 95 0.0 14.5 0.00 1.24 1.24 94 1012.0
20260905184512 23 92 1.6 12.9 1.24 1.24 1.24 93 1012.4
20260905183008 23 48 0.0 4.8 1.24 1.24 1.24 93 1011.9
20260905181506 24 150 0.0 1.6 1.24 1.24 1.24 89 1012.2
20260905180003 26 187 0.0 14.5 1.24 1.24 1.24 80 1012.3
20260905174508 32 163 0.0 4.8 0.00 0.00 0.00 71 1011.8
20260905173000 32 278 1.6 6.4 0.00 0.00 0.00 70 1011.2
20260905171634 32 60 0.0 0.0 0.00 0.00 0.00 69 1011.4
20260905170105 33 81 0.0 0.0 0.00 0.00 0.00 62 1011.6
20260905164556 33 292 0.0 3.2 0.00 0.00 0.00 65 1011.9
20260905163055 32 18 0.0 6.4 0.00 0.00 0.00 71 1012.2
20260905161547 31 43 0.0 3.2 0.00 0.00 0.00 71 1012.2
20260905160044 30 91 0.0 3.2 0.00 0.00 0.00 77 1012.2
20260905154554 30 231 0.0 1.6 0.00 0.00 0.00 77 1012.3
20260905153039 29 200 0.0 0.0 0.00 0.00 0.00 78 1012.4
20260905151536 28 198 0.0 0.0 0.00 0.00 0.00 77 1012.5
20260905150041 28 198 0.0 0.0 0.00 0.00 0.00 80 1012.6
20260905144535 27 203 0.0 0.0 0.00 0.00 0.00 84 1012.7
20260905143028 27 207 0.0 1.6 0.00 0.00 0.00 85 1012.8
20260905141525 27 207 0.0 0.0 0.00 0.00 0.00 88 1012.8
20260905140022 26 196 0.0 0.0 0.00 0.00 0.00 91 1012.7
20260905134522 25 196 0.0 0.0 0.00 0.00 0.00 95 1012.7
20260905133015 25 198 0.0 0.0 0.00 0.00 0.00 96 1013.0
20260905131529 24 113 0.0 0.0 0.00 0.00 0.00 97 1013.1
20260905130011 23 113 0.0 0.0 0.00 0.00 0.00 98 1013.1
20260905124511 23 113 0.0 0.0 0.00 0.00 0.00 98 1013.2
20260905123009 23 113 0.0 0.0 0.00 0.00 0.00 98 1013.1
20260905121508 22 113 0.0 0.0 0.00 0.00 0.00 98 1012.9
20260905120019 22 113 0.0 0.0 0.00 0.00 0.00 98 1012.8
20260905114513 22 113 0.0 0.0 0.00 0.00 0.00 98 1012.7
20260905113003 21 113 0.0 0.0 0.00 0.00 0.00 98 1012.5
20260905111501 22 113 0.0 0.0 0.00 0.00 0.00 97 1012.2
20260905110001 22 113 0.0 0.0 0.00 0.00 0.00 98 1012.1
20260905104619 22 113 0.0 0.0 0.00 0.00 0.00 98 1012.1